CAPE
nan nan nan nan nan nan nan nan nan nan nan nan nan nan nan nan nan nan nan nan nan nan nan nan nan nan nan 0 18 18 35 39 39 39 36 36 35 35 34 40 40 44 50 54 54 56 60 60 60 64 64 68 70 70 75 83 83 88 95 111 111 130 151 165 165 184 195 197 204 204 203 209 210 210 223 221 228 228 238 247 247 243 231 226 226 211
nan nan nan nan nan nan nan nan nan nan nan nan nan nan nan nan nan nan nan nan nan nan nan nan nan nan nan nan 17 17 32 31 28 28 26 28 28 28 31 37 37 41 45 48 48 50 53 56 56 59 64 66 70 70 75 80 80 83 91 104 104 123 135 150 150 154 157 163 163 163 168 164 172 172 181 191 195 195 202 210 210 210 207 209 209 205
nan nan nan nan nan nan nan nan nan nan nan nan nan nan nan nan nan nan nan nan nan nan nan nan nan nan nan nan 17 17 20 20 19 19 20 22 25 25 28 32 32 36 39 41 41 44 47 54 54 60 62 66 68 68 73 76 76 85 92 101 101 114 125 131 131 134 136 134 134 134 134 143 142 142 156 164 171 171 177 174 174 175 178 176 176 181
nan nan nan nan nan nan nan nan nan nan nan nan nan nan nan nan nan nan nan nan nan nan nan nan nan nan nan nan 0 0 11 13 16 16 19 20 21 21 23 27 27 28 33 35 35 39 45 52 52 58 62 66 72 72 74 81 81 84 89 101 101 106 110 112 112 114 113 116 117 117 118 123 128 128 137 152 157 157 159 160 160 148 148 151 151 160
nan nan nan nan nan nan nan nan nan nan nan nan nan nan nan nan nan nan nan nan nan nan nan nan nan nan nan nan nan nan 5 11 15 15 17 18 16 16 19 22 22 25 29 32 32 38 46 52 52 57 62 70 76 76 75 81 81 86 90 91 91 94 94 97 97 96 96 99 102 102 107 109 116 116 123 133 139 139 145 142 142 139 135 143 143 155
nan nan nan nan nan nan nan nan nan nan nan nan nan nan nan nan nan nan nan nan nan nan nan nan nan nan nan nan nan nan 3 10 13 13 12 11 12 12 15 19 19 23 27 33 33 40 46 51 51 56 61 70 72 72 73 73 73 76 78 81 81 80 76 80 80 81 81 85 88 88 93 98 102 102 106 111 121 121 128 130 130 130 131 141 141 157
nan nan nan nan nan nan nan nan nan nan nan nan nan nan nan nan nan nan nan nan nan nan nan nan nan nan nan nan nan nan 3 5 7 7 6 7 9 9 13 19 19 25 29 36 36 42 45 48 48 55 60 66 70 70 68 67 67 62 66 63 63 63 65 64 64 66 68 70 73 73 75 80 86 86 90 97 108 108 119 125 125 134 140 150 150 155
nan nan nan nan nan nan nan nan nan nan nan nan nan nan nan nan nan nan nan nan nan nan nan nan nan nan nan nan nan nan nan nan nan nan nan nan 0 0 6 22 22 31 35 39 39 41 43 49 49 51 54 52 52 52 48 44 44 42 40 39 39 39 42 44 44 47 51 55 59 59 62 66 70 70 76 89 102 102 115 141 141 164 187 189 189 198
nan nan nan 0 0 nan nan nan nan nan nan nan nan nan nan nan nan nan nan nan nan nan nan nan nan nan nan nan nan nan nan nan nan nan nan nan nan nan 0 17 17 27 35 37 37 40 40 42 42 46 44 42 42 42 39 36 36 32 28 26 26 29 35 41 41 45 49 54 58 58 63 69 76 76 90 101 115 115 128 154 154 180 205 221 221 235
0 0 1 1 1 3 nan nan nan nan nan nan nan nan nan nan nan nan nan nan nan nan nan nan nan nan nan nan nan nan nan nan 3 3 12 1 15 15 9 8 8 9 29 34 34 36 34 34 34 35 33 30 30 30 28 23 23 20 19 20 20 24 29 35 35 42 49 58 65 65 75 88 99 99 109 119 130 130 142 149 149 180 201 226 226 245
2 5 6 1 1 nan nan nan nan nan nan nan 1 1 3 nan nan nan nan nan nan nan nan nan nan nan nan nan nan nan nan nan nan nan nan nan 2 2 7 7 7 13 24 28 28 25 23 24 24 23 21 18 17 17 15 12 12 13 13 16 16 22 26 35 35 44 52 60 75 75 92 104 113 113 126 129 141 141 143 150 150 165 191 208 208 223
15 10 2 nan nan nan nan nan nan nan nan 0 5 5 2 nan nan nan nan nan nan nan nan nan nan nan nan nan nan nan nan nan nan nan nan nan nan nan nan nan nan nan 1 9 9 10 12 13 13 12 8 6 9 9 8 5 5 9 10 16 16 22 30 41 41 51 61 73 87 87 102 116 122 122 134 141 145 145 148 149 149 160 179 190 190 201
14 4 nan nan nan nan nan nan 0 0 1 4 3 3 0 nan nan nan nan nan nan nan nan nan nan nan nan nan nan nan nan nan nan nan nan nan nan nan nan nan nan nan nan nan nan nan nan 4 4 3 3 2 3 3 4 4 4 8 13 19 19 27 36 44 44 52 68 77 90 90 98 113 120 120 130 143 149 149 151 157 157 158 169 182 182 190
4 1 nan 0 0 nan nan 0 0 0 3 4 0 0 nan nan nan nan nan nan nan nan nan nan nan nan nan nan nan nan nan nan nan nan nan nan nan nan nan nan nan nan nan nan nan nan nan nan nan nan nan nan nan nan 0 3 3 9 16 24 24 33 39 49 49 57 64 77 85 85 97 105 115 115 131 145 150 150 154 155 155 160 163 169 169 171
1 0 2 2 2 0 1 0 2 2 3 0 nan nan nan nan nan nan nan nan nan nan nan nan nan nan nan nan nan nan nan nan nan nan nan nan nan nan nan nan nan nan nan nan nan nan nan nan nan nan nan nan nan nan nan 3 3 17 19 26 26 34 41 47 47 52 60 69 79 79 92 107 114 114 130 141 145 145 148 150 150 147 149 150 150 148
1 1 2 2 2 1 1 1 1 1 1 nan nan nan nan nan nan nan nan nan nan nan nan nan nan nan nan nan nan nan nan nan nan nan nan nan nan nan nan nan nan nan nan nan nan nan nan nan nan nan nan nan 0 0 3 8 8 18 21 28 28 33 38 44 44 49 53 62 73 73 87 99 106 106 119 124 133 133 137 139 139 136 139 139 139 138
5 3 3 2 2 2 nan 1 1 1 0 nan nan nan nan nan nan nan nan nan nan nan nan nan nan nan nan nan nan nan nan nan nan nan nan nan nan nan nan nan nan nan nan nan nan nan nan nan nan nan nan nan 1 1 5 11 11 16 21 25 25 29 35 41 41 44 51 57 70 70 81 89 92 92 101 107 112 112 120 124 124 129 131 137 137 137
9 6 3 2 2 2 0 0 0 0 nan nan nan nan nan nan nan nan nan nan nan nan nan nan nan nan nan nan nan nan nan nan nan nan nan nan nan nan nan nan nan nan nan nan nan nan nan nan nan nan nan 1 4 4 7 11 11 15 19 22 22 27 33 39 39 43 47 50 61 61 67 74 77 77 87 90 99 99 108 119 119 124 131 142 142 142
9 6 3 3 3 2 1 0 0 0 nan nan nan nan 0 nan nan nan nan nan nan nan nan nan nan nan nan nan nan nan nan nan nan nan nan nan nan nan nan nan nan nan nan nan nan nan nan nan nan nan nan 3 5 5 7 11 11 15 18 21 21 25 31 39 39 41 45 48 53 53 58 63 67 67 70 81 91 91 103 113 113 125 128 130 130 131
7 5 2 2 2 3 2 1 0 0 0 1 1 1 nan nan nan nan nan nan nan nan nan nan nan nan nan nan nan nan nan nan nan nan nan nan nan nan nan nan nan nan nan nan nan nan nan nan nan nan nan 1 4 4 7 10 10 14 17 21 21 26 30 36 36 41 42 46 48 48 52 55 64 64 66 76 85 85 96 105 105 109 112 114 114 112
9 6 0 nan nan 2 2 1 nan nan 3 3 nan nan nan nan nan nan nan nan nan nan nan nan nan nan nan nan nan nan nan nan nan nan nan nan nan nan nan nan nan nan nan nan nan nan nan nan nan nan nan 1 5 5 8 11 11 14 17 20 20 25 28 33 33 37 40 42 45 45 47 51 57 57 62 67 74 74 81 86 86 90 90 93 93 95
8 9 0 1 1 2 4 0 1 1 2 nan nan nan nan nan nan nan nan nan nan nan nan nan nan nan nan nan nan nan nan nan nan nan nan nan nan nan nan nan nan nan nan nan nan nan nan nan nan nan nan 3 7 7 10 12 12 14 17 21 21 23 26 29 29 33 38 41 43 43 44 48 51 51 54 61 65 65 71 73 73 76 79 85 85 83
8 8 4 1 1 0 0 nan nan nan nan nan nan nan nan nan nan nan nan nan nan nan nan nan nan nan nan nan nan nan nan nan nan nan nan nan nan nan nan nan nan nan nan nan nan nan nan nan nan nan nan 7 8 8 10 13 13 15 17 20 20 23 26 29 29 32 35 39 42 42 44 45 49 49 52 56 57 57 62 70 70 72 70 75 75 76
3 1 nan nan nan nan nan nan nan nan nan nan nan nan nan nan nan nan nan nan nan nan nan nan nan nan nan nan nan nan nan nan nan nan nan nan nan nan nan nan nan nan nan nan nan nan nan nan nan nan nan 3 8 8 11 12 12 15 17 20 20 23 24 26 26 29 34 37 40 40 42 45 46 46 49 51 53 53 58 63 63 65 69 67 67 68
nan nan nan nan nan nan nan nan 0 0 0 2 1 1 nan 0 2 2 nan nan nan nan nan nan nan nan nan nan nan nan nan nan nan nan nan nan nan nan nan nan nan nan nan nan nan nan nan nan nan nan nan nan 6 6 9 11 11 14 17 21 21 22 23 26 26 28 32 35 36 36 39 42 43 43 47 50 53 53 56 59 59 62 64 61 61 59
nan 0 0 6 6 32 52 69 86 86 71 41 13 13 nan nan nan nan nan nan nan nan nan nan nan nan nan nan nan nan nan nan nan nan nan nan nan nan nan nan nan nan nan nan nan nan nan nan nan nan nan nan 2 2 6 10 10 12 16 19 19 20 21 23 23 26 29 30 34 34 37 40 44 44 48 51 51 51 56 58 58 59 61 57 57 55
29 35 46 53 53 64 77 91 99 99 102 72 18 18 1 nan nan nan nan 0 0 0 0 0 0 nan nan nan nan nan nan nan nan nan nan nan nan nan nan nan nan nan nan nan nan nan nan nan nan nan nan nan nan nan 4 8 8 12 14 15 15 15 18 20 20 24 24 29 30 30 35 39 45 45 48 50 52 52 55 56 56 58 56 52 52 50
28 35 41 52 52 65 75 81 72 72 59 47 46 46 21 2 1 1 3 2 2 2 0 nan nan nan nan nan nan nan nan nan nan nan nan nan nan nan nan nan nan nan nan nan nan nan 5 0 0 nan nan nan nan nan nan 5 5 9 11 12 12 13 15 17 17 19 23 25 29 29 33 38 45 45 47 51 53 53 56 57 57 57 53 38 38 10
17 25 39 52 52 56 51 41 30 30 26 27 34 34 22 2 2 2 2 1 1 1 0 0 0 0 nan nan nan nan nan nan nan nan nan nan nan nan nan nan nan nan nan nan nan nan nan nan nan nan nan nan nan nan nan 1 1 4 6 8 8 10 10 13 13 17 19 23 26 26 33 38 43 43 47 51 52 52 55 56 56 55 41 24 24 8
3 24 31 29 29 22 12 0 7 7 18 23 28 28 22 2 1 1 0 0 0 nan nan 0 0 0 nan nan nan nan nan nan nan nan nan nan nan nan nan nan nan nan nan nan nan nan nan nan nan nan nan nan nan nan nan nan nan nan nan 4 4 4 6 10 10 14 19 22 26 26 30 35 40 40 42 45 48 48 51 49 49 40 18 8 8 4
nan nan nan nan nan nan nan nan nan nan 14 22 24 24 15 0 nan nan nan nan nan nan nan nan nan nan nan nan nan nan nan nan nan nan nan nan nan nan nan nan nan nan nan nan nan nan nan nan nan nan nan nan nan nan nan nan nan nan nan nan nan nan 3 7 7 12 18 21 25 25 30 33 33 33 34 37 42 42 43 47 47 35 8 5 5 3
nan nan nan nan nan nan nan nan nan nan nan nan nan nan 2 2 1 1 0 nan nan nan nan nan nan nan nan nan nan nan nan nan nan nan nan nan nan nan nan nan nan nan nan nan nan nan nan nan nan nan nan nan nan nan nan nan nan nan nan nan nan nan nan 2 2 4 3 11 16 16 18 18 19 19 22 26 30 30 32 39 39 33 13 3 3 4
nan nan nan nan nan nan nan nan nan nan nan nan nan nan nan nan 2 2 1 0 0 nan nan nan nan nan nan nan nan nan nan nan nan nan 2 nan nan nan nan nan nan nan nan nan nan nan nan nan nan nan nan nan nan nan nan nan nan nan nan nan nan nan nan nan nan nan nan nan 1 1 10 12 14 14 17 19 23 23 27 33 33 37 30 4 4 6
nan nan nan nan nan nan nan nan nan nan nan nan nan nan nan nan nan nan 0 0 0 nan nan nan nan nan nan nan nan nan nan nan 0 0 1 nan nan nan nan nan nan nan nan nan nan nan nan nan nan nan nan nan nan nan nan nan nan nan nan nan nan nan nan nan nan nan nan nan nan nan nan nan 3 3 6 12 15 15 22 30 30 35 44 24 24 13
nan nan nan nan nan nan nan nan nan nan nan nan nan nan nan nan nan nan nan nan nan nan nan nan nan nan nan nan nan nan nan nan nan nan 3 nan nan nan nan nan nan nan nan nan nan nan nan nan nan nan nan nan nan nan nan nan nan nan nan nan nan nan nan nan nan nan nan nan nan nan nan nan nan nan nan 3 11 11 23 32 32 40 46 53 53 42
nan nan nan nan nan nan nan nan nan nan nan nan nan nan nan nan nan nan nan nan nan nan 0 nan nan nan nan nan nan nan nan nan nan nan 5 nan nan nan nan nan nan nan nan nan nan nan nan nan nan 0 1 nan nan nan nan nan nan nan nan nan nan nan nan nan nan nan nan nan nan nan nan nan nan nan nan 7 17 17 28 33 33 40 44 51 51 50
nan nan nan nan nan nan nan nan nan nan nan nan nan nan nan nan nan nan nan nan nan nan nan 0 0 nan 3 nan nan nan nan nan nan nan nan nan nan nan nan nan nan nan nan nan nan nan nan nan nan nan nan nan nan nan nan nan nan nan nan nan nan nan nan nan nan nan nan nan nan nan nan nan nan nan nan 8 12 12 21 30 30 29 34 38 38 43
nan nan nan nan nan nan nan nan nan nan nan nan nan nan nan nan nan nan nan nan nan nan nan nan nan nan 0 6 nan nan nan nan nan nan nan nan nan nan nan nan nan nan nan nan nan nan nan nan nan nan nan nan nan nan nan nan nan nan nan nan nan nan nan nan nan nan nan nan nan nan nan nan nan nan nan nan nan nan nan nan nan 2 18 19 19 34
nan nan nan 0 0 nan nan nan nan nan nan nan nan nan nan nan nan nan nan nan nan nan nan nan nan nan nan nan nan nan 1 nan nan nan nan nan nan nan nan nan nan nan nan nan nan nan nan nan nan nan nan nan nan nan nan nan nan nan nan nan nan nan nan nan nan nan nan nan nan nan nan nan nan nan nan nan nan nan nan nan nan nan nan nan nan 4
nan nan 0 1 1 nan nan nan nan nan nan nan 0 0 nan nan nan nan nan nan nan nan nan nan nan nan nan nan 0 0 nan nan nan nan nan nan nan nan nan nan nan nan nan nan nan nan nan nan nan nan nan nan nan nan nan nan nan nan nan nan nan nan nan nan nan nan nan nan nan nan nan nan nan nan nan nan nan nan nan nan nan nan nan nan nan nan
1 nan nan 0 0 nan nan 0 nan nan nan nan nan nan nan nan nan nan nan nan nan nan nan nan nan nan nan nan nan nan nan nan nan nan nan nan nan nan nan nan nan nan nan nan nan nan nan nan nan nan nan nan nan nan nan nan nan 0 4 nan nan nan nan nan nan nan nan nan nan nan nan nan nan nan nan nan nan nan nan nan nan nan nan nan nan nan
3 nan nan nan nan nan nan nan 0 0 0 nan nan nan nan nan nan nan nan nan nan nan nan nan nan nan nan nan nan nan nan nan nan nan nan nan nan nan nan nan nan nan nan nan nan nan nan nan nan nan nan nan nan nan nan nan nan nan 0 nan nan nan nan nan nan nan nan nan nan nan nan nan nan nan nan nan nan nan nan nan nan nan nan nan nan nan
0 nan nan nan nan nan nan nan nan nan nan nan nan nan nan nan nan nan nan nan nan nan nan nan nan nan nan nan nan nan nan nan nan nan nan nan nan nan nan nan nan nan nan nan nan nan nan nan nan nan nan nan nan nan nan nan nan nan nan nan nan nan nan nan nan nan nan nan nan nan nan nan nan nan nan nan nan nan nan nan nan 2 1 nan nan nan
nan nan nan nan nan nan nan 0 nan nan nan nan nan nan nan nan nan nan nan nan nan nan nan nan nan nan nan nan nan nan nan nan nan nan nan nan nan nan nan nan nan nan nan nan nan nan nan nan nan nan nan nan nan nan nan nan nan nan nan nan nan nan nan nan nan nan nan nan nan nan nan nan nan nan nan nan nan nan nan nan nan nan nan nan nan nan
nan nan nan nan nan 0 0 nan nan nan nan nan nan nan nan nan nan nan nan nan nan nan nan nan nan nan nan nan nan nan nan nan nan nan nan nan 0 0 nan nan nan nan nan nan nan nan nan nan nan nan nan nan nan nan nan nan nan nan nan nan nan nan nan nan nan nan nan nan nan nan nan nan nan nan nan nan nan nan nan nan nan nan nan nan nan nan
nan nan nan nan nan nan 0 nan nan nan nan nan nan nan nan nan nan nan nan nan nan nan nan nan nan nan nan nan nan nan nan nan nan nan nan nan nan nan nan nan nan nan nan nan nan nan nan nan nan nan nan nan nan nan nan nan nan nan nan nan nan nan nan nan nan nan nan nan nan nan nan nan nan nan nan nan nan nan nan nan nan nan nan nan nan nan
nan nan nan nan nan nan nan nan nan nan nan nan nan nan nan nan nan nan nan nan nan nan nan nan nan nan nan nan nan nan nan nan nan nan nan nan nan nan nan nan nan nan nan nan nan nan nan nan nan nan nan nan nan nan nan nan nan nan nan nan nan nan nan nan nan nan nan nan nan nan nan nan nan nan nan nan nan nan nan nan nan nan nan nan nan nan
nan nan nan nan nan nan nan nan nan nan nan nan nan nan nan nan nan nan nan nan nan nan nan nan nan nan nan nan nan nan nan nan nan nan nan nan nan nan nan nan nan nan nan nan nan nan nan nan nan nan nan nan nan nan nan nan nan nan nan nan nan nan nan nan nan nan nan nan nan nan nan nan nan nan nan nan nan nan nan nan nan nan nan nan nan nan
nan nan nan nan nan nan nan nan nan nan nan nan nan nan nan nan 6 6 nan nan nan nan nan nan nan nan nan nan nan nan nan nan nan nan nan nan nan nan nan nan nan nan nan nan nan nan nan nan nan nan nan nan nan nan nan nan nan nan nan nan nan nan nan nan nan nan nan nan nan nan nan nan nan nan nan nan nan nan nan nan nan nan nan nan nan nan
nan nan nan nan nan nan nan nan nan nan nan nan nan nan nan nan nan nan nan nan nan nan nan nan nan nan nan nan nan nan nan nan nan nan nan nan nan nan nan nan nan nan nan nan nan nan nan nan nan nan nan nan nan nan nan nan nan nan nan nan nan nan nan nan nan nan nan nan nan nan nan nan nan nan nan nan nan nan nan nan nan nan nan nan nan nan
nan nan nan nan nan nan nan nan nan nan nan nan nan nan nan nan nan nan nan nan nan nan nan nan nan nan nan nan nan nan nan nan nan nan nan nan nan nan nan nan nan nan nan nan nan nan nan nan nan nan nan 8 0 0 nan nan nan nan nan nan nan nan nan nan nan nan nan nan nan nan nan nan nan nan nan nan nan nan nan nan nan nan nan nan nan nan
CIN
nan nan nan nan nan nan nan nan nan nan nan nan nan nan nan nan nan nan nan nan nan nan nan nan nan nan nan -7 0 0 0 0 0 0 0 0 0 0 0 0 0 0 0 0 0 0 0 0 0 0 0 0 0 0 0 0 0 0 0 0 0 0 0 0 0 0 0 0 0 0 0 0 0 0 0 0 0 0 0 0 0 0 0 0 0 0
nan nan nan nan nan nan nan nan nan nan nan nan nan nan nan nan nan nan nan nan nan nan nan nan nan nan nan nan 0 0 0 0 0 0 0 0 0 0 0 0 0 0 0 0 0 0 0 0 0 0 0 0 0 0 0 0 0 0 0 0 0 0 0 0 0 0 0 0 0 0 0 0 0 0 0 0 0 0 0 0 0 0 0 0 0 0
nan nan nan nan nan nan nan nan nan nan nan nan nan nan nan nan nan nan nan nan nan nan nan nan nan nan nan nan 0 0 0 0 0 0 0 0 0 0 0 0 0 0 0 0 0 0 0 0 0 0 0 0 0 0 0 0 0 0 0 0 0 0 0 0 0 0 0 0 0 0 0 0 0 0 0 0 0 0 0 0 0 0 0 0 0 0
nan nan nan nan nan nan nan nan nan nan nan nan nan nan nan nan nan nan nan nan nan nan nan nan nan nan nan nan -6 -6 0 0 0 0 0 0 0 0 0 0 0 0 0 0 0 0 0 0 0 0 0 0 0 0 0 0 0 0 0 0 0 0 0 0 0 0 0 0 0 0 0 0 0 0 0 0 0 0 0 0 0 0 0 0 0 0
nan nan nan nan nan nan nan nan nan nan nan nan nan nan nan nan nan nan nan nan nan nan nan nan nan nan nan nan nan nan 0 0 0 0 0 0 0 0 0 0 0 0 0 0 0 0 0 0 0 0 0 0 0 0 0 0 0 0 0 0 0 0 0 0 0 0 0 0 0 0 0 0 0 0 0 0 0 0 0 0 0 0 0 0 0 0
nan nan nan nan nan nan nan nan nan nan nan nan nan nan nan nan nan nan nan nan nan nan nan nan nan nan nan nan nan nan 0 0 0 0 0 0 0 0 0 0 0 0 0 0 0 0 0 0 0 0 0 0 0 0 0 0 0 0 0 0 0 0 0 0 0 0 0 0 0 0 0 0 0 0 0 0 0 0 0 0 0 0 0 0 0 0
nan nan nan nan nan nan nan nan nan nan nan nan nan nan nan nan nan nan nan nan nan nan nan nan nan nan nan nan nan nan 0 0 0 0 0 0 0 0 0 0 0 0 0 0 0 0 0 0 0 0 0 0 0 0 0 0 0 0 0 0 0 0 0 0 0 0 0 0 0 0 0 0 0 0 0 0 0 0 0 0 0 0 0 0 0 0
nan nan nan nan nan nan nan nan nan nan nan nan nan nan nan nan nan nan nan nan nan nan nan nan nan nan nan nan nan nan nan nan nan nan nan nan 0 0 0 0 0 0 0 0 0 0 0 0 0 0 0 0 0 0 0 0 0 0 0 0 0 0 0 0 0 0 0 0 0 0 0 0 0 0 0 0 0 0 0 0 0 0 0 0 0 0
nan nan nan -21 -21 nan nan nan nan nan nan nan nan nan nan nan nan nan nan nan nan nan nan nan nan nan nan nan nan nan nan nan nan nan nan nan nan nan -2 0 0 0 0 0 0 0 0 0 0 0 0 0 0 0 0 0 0 0 0 0 0 0 0 0 0 0 0 0 0 0 0 0 0 0 0 0 0 0 0 0 0 0 0 0 0 0
-23 -19 -18 -15 -15 -17 nan nan nan nan nan nan nan nan nan nan nan nan nan nan nan nan nan nan nan nan nan nan nan nan nan nan 0 0 0 0 0 0 0 0 0 0 0 0 0 0 0 0 0 0 0 0 0 0 0 0 0 0 0 0 0 0 0 0 0 0 0 0 0 0 0 0 0 0 0 0 0 0 0 0 0 0 0 0 0 0
-13 -11 -9 -16 -16 nan nan nan nan nan nan nan -28 -28 -25 nan nan nan nan nan nan nan nan nan nan nan nan nan nan nan nan nan nan nan nan nan -0 -0 0 -0 -0 0 0 0 0 0 0 0 0 0 0 0 0 0 0 0 0 0 0 0 0 0 0 0 0 0 0 0 0 0 0 0 0 0 0 0 0 0 0 0 0 0 0 0 0 0
-5 -7 -19 nan nan nan nan nan nan nan nan -21 -9 -9 -11 nan nan nan nan nan nan nan nan nan nan nan nan nan nan nan nan nan nan nan nan nan nan nan nan nan nan nan -4 0 0 0 0 0 0 0 0 0 0 0 0 0 0 0 0 0 0 0 0 0 0 0 0 0 0 0 0 0 0 0 0 0 0 0 0 0 0 0 0 0 0 0
-8 -19 nan nan nan nan nan nan -15 -15 -10 -7 -7 -7 -11 nan nan nan nan nan nan nan nan nan nan nan nan nan nan nan nan nan nan nan nan nan nan nan nan nan nan nan nan nan nan nan nan 0 0 0 0 0 0 0 0 0 0 0 0 0 0 0 0 0 0 0 0 0 0 0 0 0 0 0 0 0 0 0 0 0 0 0 0 0 0 0
-14 -23 nan -20 -20 nan nan -15 -9 -9 -5 -7 -16 -16 nan nan nan nan nan nan nan nan nan nan nan nan nan nan nan nan nan nan nan nan nan nan nan nan nan nan nan nan nan nan nan nan nan nan nan nan nan nan nan nan 0 0 0 0 0 0 0 0 0 0 0 0 0 0 0 0 0 0 0 0 0 0 0 0 0 0 0 0 0 0 0 0
-19 -21 -16 -14 -14 -17 -13 -12 -7 -7 -8 -16 nan nan nan nan nan nan nan nan nan nan nan nan nan nan nan nan nan nan nan nan nan nan nan nan nan nan nan nan nan nan nan nan nan nan nan nan nan nan nan nan nan nan nan 0 0 0 0 0 0 0 0 0 0 0 0 0 0 0 0 0 0 0 0 0 0 0 0 0 0 0 0 0 0 0
-21 -21 -15 -14 -14 -13 -11 -10 -9 -9 -12 nan nan nan nan nan nan nan nan nan nan nan nan nan nan nan nan nan nan nan nan nan nan nan nan nan nan nan nan nan nan nan nan nan nan nan nan nan nan nan nan nan 0 0 0 0 0 0 0 0 0 0 0 0 0 0 0 0 0 0 0 0 0 0 0 0 0 0 0 0 0 0 0 0 0 0
-19 -16 -13 -12 -12 -8 nan -11 -13 -13 -18 nan nan nan nan nan nan nan nan nan nan nan nan nan nan nan nan nan nan nan nan nan nan nan nan nan nan nan nan nan nan nan nan nan nan nan nan nan nan nan nan nan 0 0 0 0 0 0 0 0 0 0 0 0 0 0 0 0 0 0 0 0 0 0 0 0 0 0 0 0 0 0 0 0 0 0
-12 -13 -14 -9 -9 -7 -7 -11 -15 -15 nan nan nan nan nan nan nan nan nan nan nan nan nan nan nan nan nan nan nan nan nan nan nan nan nan nan nan nan nan nan nan nan nan nan nan nan nan nan nan nan nan 0 0 0 0 0 0 0 0 0 0 0 0 0 0 0 0 0 0 0 0 0 0 0 0 0 0 0 0 0 0 0 0 0 0 0
-11 -10 -9 -6 -6 -6 -8 -9 -10 -10 nan nan nan nan -17 nan nan nan nan nan nan nan nan nan nan nan nan nan nan nan nan nan nan nan nan nan nan nan nan nan nan nan nan nan nan nan nan nan nan nan nan 0 0 0 0 0 0 0 0 0 0 0 0 0 0 0 0 0 0 0 0 0 0 0 0 0 0 0 0 0 0 0 0 0 0 0
-10 -9 -9 -7 -7 -6 -8 -7 -7 -7 -7 -8 -13 -13 nan nan nan nan nan nan nan nan nan nan nan nan nan nan nan nan nan nan nan nan nan nan nan nan nan nan nan nan nan nan nan nan nan nan nan nan nan 0 0 0 0 0 0 0 0 0 0 0 0 0 0 0 0 0 0 0 0 0 0 0 0 0 0 0 0 0 0 0 0 0 0 0
-7 -7 -22 nan nan -10 -8 -9 nan nan -7 -13 nan nan nan nan nan nan nan nan nan nan nan nan nan nan nan nan nan nan nan nan nan nan nan nan nan nan nan nan nan nan nan nan nan nan nan nan nan nan nan 0 0 0 0 0 0 0 0 0 0 0 0 0 0 0 0 0 0 0 0 0 0 0 0 0 0 0 0 0 0 0 0 0 0 0
-8 -5 -24 -25 -25 -11 -3 -11 -10 -10 -18 nan nan nan nan nan nan nan nan nan nan nan nan nan nan nan nan nan nan nan nan nan nan nan nan nan nan nan nan nan nan nan nan nan nan nan nan nan nan nan nan 0 0 0 0 0 0 0 0 0 0 0 0 0 0 0 0 0 0 0 0 0 0 0 0 0 0 0 0 0 0 0 0 0 0 0
-7 -6 -11 -14 -14 -15 -13 nan nan nan nan nan nan nan nan nan nan nan nan nan nan nan nan nan nan nan nan nan nan nan nan nan nan nan nan nan nan nan nan nan nan nan nan nan nan nan nan nan nan nan nan 0 0 0 0 0 0 0 0 0 0 0 0 0 0 0 0 0 0 0 0 0 0 0 0 0 0 0 0 0 0 0 0 0 0 0
-13 -16 nan nan nan nan nan nan nan nan nan nan nan nan nan nan nan nan nan nan nan nan nan nan nan nan nan nan nan nan nan nan nan nan nan nan nan nan nan nan nan nan nan nan nan nan nan nan nan nan nan 0 0 0 0 0 0 0 0 0 0 0 0 0 0 0 0 0 0 0 0 0 0 0 0 0 0 0 0 0 0 0 0 0 0 0
nan nan nan nan nan nan nan nan -20 -20 -25 -26 -41 -41 nan -23 -1 -1 nan nan nan nan nan nan nan nan nan nan nan nan nan nan nan nan nan nan nan nan nan nan nan nan nan nan nan nan nan nan nan nan nan nan 0 0 0 0 0 0 0 0 0 0 0 0 0 0 0 0 0 0 0 0 0 0 0 0 0 0 0 0 0 0 0 0 0 0
nan -19 -20 -10 -10 0 0 0 0 0 0 -3 -8 -8 nan nan nan nan nan nan nan nan nan nan nan nan nan nan nan nan nan nan nan nan nan nan nan nan nan nan nan nan nan nan nan nan nan nan nan nan nan nan 0 0 0 0 0 0 0 0 0 0 0 0 0 0 0 0 0 0 0 0 0 0 0 0 0 0 0 0 0 0 0 0 0 0
0 0 0 0 0 0 0 0 0 0 0 0 -3 -3 -11 nan nan nan nan -8 -8 -9 -7 -6 -6 nan nan nan nan nan nan nan nan nan nan nan nan nan nan nan nan nan nan nan nan nan nan nan nan nan nan nan nan nan 0 0 0 0 0 0 0 0 0 0 0 0 0 0 0 0 0 0 0 0 0 0 0 0 0 0 0 0 0 0 0 0
0 0 0 0 0 0 0 0 0 0 0 0 0 0 0 -12 -7 -7 -4 -6 -6 -8 -6 nan nan nan nan nan nan nan nan nan nan nan nan nan nan nan nan nan nan nan nan nan nan nan 0 -7 -7 nan nan nan nan nan nan 0 0 0 0 0 0 0 0 0 0 0 0 0 0 0 0 0 0 0 0 0 0 0 0 0 0 0 0 0 0 -13
0 0 0 0 0 0 0 0 0 0 0 0 0 0 0 -12 -5 -5 -5 -9 -9 -8 -6 -5 -5 -4 nan nan nan nan nan nan nan nan nan nan nan nan nan nan nan nan nan nan nan nan nan nan nan nan nan nan nan nan nan 0 0 0 0 0 0 0 0 0 0 0 0 0 0 0 0 0 0 0 0 0 0 0 0 0 0 0 0 -1 -1 -16
0 0 0 0 0 0 0 -9 0 0 0 0 0 0 0 -15 -11 -11 -10 -13 -13 nan nan -3 -3 -3 nan nan nan nan nan nan nan nan nan nan nan nan nan nan nan nan nan nan nan nan nan nan nan nan nan nan nan nan nan nan nan nan nan 0 0 0 0 0 0 0 0 0 0 0 0 0 0 0 0 0 0 0 0 0 0 0 -5 -17 -17 -19
nan nan nan nan nan nan nan nan nan nan 0 0 0 0 0 -19 nan nan nan nan nan nan nan nan nan nan nan nan nan nan nan nan nan nan nan nan nan nan nan nan nan nan nan nan nan nan nan nan nan nan nan nan nan nan nan nan nan nan nan nan nan nan 0 0 0 0 0 0 0 0 0 0 0 0 0 0 0 0 0 0 0 0 -12 -19 -19 -21
nan nan nan nan nan nan nan nan nan nan nan nan nan nan -6 -6 -15 -15 -25 nan nan nan nan nan nan nan nan nan nan nan nan nan nan nan nan nan nan nan nan nan nan nan nan nan nan nan nan nan nan nan nan nan nan nan nan nan nan nan nan nan nan nan nan 0 0 0 0 0 0 0 0 0 0 0 0 0 0 0 0 0 0 0 -5 -16 -16 -15
nan nan nan nan nan nan nan nan nan nan nan nan nan nan nan nan -6 -6 -17 -27 -27 nan nan nan nan nan nan nan nan nan nan nan nan nan -1 nan nan nan nan nan nan nan nan nan nan nan nan nan nan nan nan nan nan nan nan nan nan nan nan nan nan nan nan nan nan nan nan nan -1 -1 0 0 0 0 0 0 0 0 0 0 0 0 0 -13 -13 -12
nan nan nan nan nan nan nan nan nan nan nan nan nan nan nan nan nan nan -19 -26 -26 nan nan nan nan nan nan nan nan nan nan nan -1 -1 -0 nan nan nan nan nan nan nan nan nan nan nan nan nan nan nan nan nan nan nan nan nan nan nan nan nan nan nan nan nan nan nan nan nan nan nan nan nan 0 0 0 0 0 0 0 0 0 0 0 0 0 -7
nan nan nan nan nan nan nan nan nan nan nan nan nan nan nan nan nan nan nan nan nan nan nan nan nan nan nan nan nan nan nan nan nan nan 0 nan nan nan nan nan nan nan nan nan nan nan nan nan nan nan nan nan nan nan nan nan nan nan nan nan nan nan nan nan nan nan nan nan nan nan nan nan nan nan nan 0 0 0 0 0 0 0 0 0 0 0
nan nan nan nan nan nan nan nan nan nan nan nan nan nan nan nan nan nan nan nan nan nan -11 nan nan nan nan nan nan nan nan nan nan nan 0 nan nan nan nan nan nan nan nan nan nan nan nan nan nan -2 0 nan nan nan nan nan nan nan nan nan nan nan nan nan nan nan nan nan nan nan nan nan nan nan nan 0 0 0 0 0 0 0 0 0 0 0
nan nan nan nan nan nan nan nan nan nan nan nan nan nan nan nan nan nan nan nan nan nan nan -7 -7 nan -5 nan nan nan nan nan nan nan nan nan nan nan nan nan nan nan nan nan nan nan nan nan nan nan nan nan nan nan nan nan nan nan nan nan nan nan nan nan nan nan nan nan nan nan nan nan nan nan nan 0 0 0 0 0 0 0 0 0 0 0
nan nan nan nan nan nan nan nan nan nan nan nan nan nan nan nan nan nan nan nan nan nan nan nan nan nan -9 -3 nan nan nan nan nan nan nan nan nan nan nan nan nan nan nan nan nan nan nan nan nan nan nan nan nan nan nan nan nan nan nan nan nan nan nan nan nan nan nan nan nan nan nan nan nan nan nan nan nan nan nan nan nan -1 0 0 0 0
nan nan nan -8 -8 nan nan nan nan nan nan nan nan nan nan nan nan nan nan nan nan nan nan nan nan nan nan nan nan nan -9 nan nan nan nan nan nan nan nan nan nan nan nan nan nan nan nan nan nan nan nan nan nan nan nan nan nan nan nan nan nan nan nan nan nan nan nan nan nan nan nan nan nan nan nan nan nan nan nan nan nan nan nan nan nan -1
nan nan -7 -3 -3 nan nan nan nan nan nan nan -7 -7 nan nan nan nan nan nan nan nan nan nan nan nan nan nan -10 -10 nan nan nan nan nan nan nan nan nan nan nan nan nan nan nan nan nan nan nan nan nan nan nan nan nan nan nan nan nan nan nan nan nan nan nan nan nan nan nan nan nan nan nan nan nan nan nan nan nan nan nan nan nan nan nan nan
-2 nan nan -6 -6 nan nan -8 nan nan nan nan nan nan nan nan nan nan nan nan nan nan nan nan nan nan nan nan nan nan nan nan nan nan nan nan nan nan nan nan nan nan nan nan nan nan nan nan nan nan nan nan nan nan nan nan nan -4 0 nan nan nan nan nan nan nan nan nan nan nan nan nan nan nan nan nan nan nan nan nan nan nan nan nan nan nan
0 nan nan nan nan nan nan nan -9 -9 -8 nan nan nan nan nan nan nan nan nan nan nan nan nan nan nan nan nan nan nan nan nan nan nan nan nan nan nan nan nan nan nan nan nan nan nan nan nan nan nan nan nan nan nan nan nan nan nan -3 nan nan nan nan nan nan nan nan nan nan nan nan nan nan nan nan nan nan nan nan nan nan nan nan nan nan nan
-2 nan nan nan nan nan nan nan nan nan nan nan nan nan nan nan nan nan nan nan nan nan nan nan nan nan nan nan nan nan nan nan nan nan nan nan nan nan nan nan nan nan nan nan nan nan nan nan nan nan nan nan nan nan nan nan nan nan nan nan nan nan nan nan nan nan nan nan nan nan nan nan nan nan nan nan nan nan nan nan nan -3 -3 nan nan nan
nan nan nan nan nan nan nan -7 nan nan nan nan nan nan nan nan nan nan nan nan nan nan nan nan nan nan nan nan nan nan nan nan nan nan nan nan nan nan nan nan nan nan nan nan nan nan nan nan nan nan nan nan nan nan nan nan nan nan nan nan nan nan nan nan nan nan nan nan nan nan nan nan nan nan nan nan nan nan nan nan nan nan nan nan nan nan
nan nan nan nan nan -6 -8 nan nan nan nan nan nan nan nan nan nan nan nan nan nan nan nan nan nan nan nan nan nan nan nan nan nan nan nan nan -16 -16 nan nan nan nan nan nan nan nan nan nan nan nan nan nan nan nan nan nan nan nan nan nan nan nan nan nan nan nan nan nan nan nan nan nan nan nan nan nan nan nan nan nan nan nan nan nan nan nan
nan nan nan nan nan nan -6 nan nan nan nan nan nan nan nan nan nan nan nan nan nan nan nan nan nan nan nan nan nan nan nan nan nan nan nan nan nan nan nan nan nan nan nan nan nan nan nan nan nan nan nan nan nan nan nan nan nan nan nan nan nan nan nan nan nan nan nan nan nan nan nan nan nan nan nan nan nan nan nan nan nan nan nan nan nan nan
nan nan nan nan nan nan nan nan nan nan nan nan nan nan nan nan nan nan nan nan nan nan nan nan nan nan nan nan nan nan nan nan nan nan nan nan nan nan nan nan nan nan nan nan nan nan nan nan nan nan nan nan nan nan nan nan nan nan nan nan nan nan nan nan nan nan nan nan nan nan nan nan nan nan nan nan nan nan nan nan nan nan nan nan nan nan
nan nan nan nan nan nan nan nan nan nan nan nan nan nan nan nan nan nan nan nan nan nan nan nan nan nan nan nan nan nan nan nan nan nan nan nan nan nan nan nan nan nan nan nan nan nan nan nan nan nan nan nan nan nan nan nan nan nan nan nan nan nan nan nan nan nan nan nan nan nan nan nan nan nan nan nan nan nan nan nan nan nan nan nan nan nan
nan nan nan nan nan nan nan nan nan nan nan nan nan nan nan nan 0 0 nan nan nan nan nan nan nan nan nan nan nan nan nan nan nan nan nan nan nan nan nan nan nan nan nan nan nan nan nan nan nan nan nan nan nan nan nan nan nan nan nan nan nan nan nan nan nan nan nan nan nan nan nan nan nan nan nan nan nan nan nan nan nan nan nan nan nan nan
nan nan nan nan nan nan nan nan nan nan nan nan nan nan nan nan nan nan nan nan nan nan nan nan nan nan nan nan nan nan nan nan nan nan nan nan nan nan nan nan nan nan nan nan nan nan nan nan nan nan nan nan nan nan nan nan nan nan nan nan nan nan nan nan nan nan nan nan nan nan nan nan nan nan nan nan nan nan nan nan nan nan nan nan nan nan
nan nan nan nan nan nan nan nan nan nan nan nan nan nan nan nan nan nan nan nan nan nan nan nan nan nan nan nan nan nan nan nan nan nan nan nan nan nan nan nan nan nan nan nan nan nan nan nan nan nan nan -3 -11 -11 nan nan nan nan nan nan nan nan nan nan nan nan nan nan nan nan nan nan nan nan nan nan nan nan nan nan nan nan nan nan nan nan
Wind_Speed
3 3 3 3 3 3 4 4 4 5 5 6 6 7 7 8 8 9 10 10 10 9 9 9 9 9 11 14 17 19 21 22 23 23 23 23 24 24 24 24 24 24 24 24 24 24 24 24 24 24 24 24 24 24 24 24 24 24 24 24 24 24 24 24 24 24 24 24 24 24 24 24 24 24 24 24 23 23 23 23 23 24 24 24 25 25
3 3 3 3 3 3 4 4 4 5 6 7 7 8 8 8 8 8 8 9 9 9 8 8 8 8 8 10 14 18 20 21 22 23 23 23 24 24 24 24 24 24 24 24 24 24 24 24 24 24 24 24 24 24 24 24 24 24 24 24 24 24 25 25 25 25 25 25 24 24 24 24 24 24 23 23 23 23 23 23 24 24 24 24 24 25
3 3 3 3 3 3 4 5 4 5 5 7 8 8 9 9 9 8 7 8 8 7 7 7 7 7 7 9 13 17 19 21 22 23 23 24 24 24 24 25 25 25 25 25 25 25 25 24 24 24 24 24 24 24 24 25 25 25 25 25 25 25 25 25 25 25 25 24 24 24 24 24 24 23 23 23 23 24 24 24 24 24 24 25 25 25
3 3 3 3 3 3 4 5 5 5 6 7 8 9 9 8 8 8 7 7 7 7 7 7 7 6 6 7 10 14 18 20 22 23 23 24 24 24 25 25 25 25 25 25 25 25 25 25 25 25 25 25 25 25 25 25 25 25 25 25 25 25 25 25 25 25 25 24 24 24 24 23 23 23 23 23 23 24 24 24 24 24 25 25 25 26
3 3 3 3 3 4 4 5 5 6 6 6 7 8 8 7 7 7 7 7 7 6 6 6 6 6 6 6 9 13 18 20 22 23 24 24 24 25 25 25 25 25 25 25 25 25 25 25 25 25 25 25 25 25 25 25 25 25 25 25 25 25 25 25 25 25 24 24 24 23 23 23 23 23 23 23 23 24 24 24 24 24 25 25 25 26
3 3 3 3 3 4 4 4 5 5 5 5 6 6 7 6 6 6 7 7 6 6 5 5 5 5 6 6 9 13 17 20 21 23 23 24 24 25 25 25 24 24 25 25 25 25 25 25 25 25 25 25 25 25 26 26 26 26 26 25 25 25 25 25 24 24 24 24 23 23 23 23 23 23 23 23 23 23 24 24 24 24 24 25 25 25
3 3 3 3 3 4 4 4 4 4 4 5 6 6 7 6 6 7 7 6 5 5 5 5 5 5 5 7 9 12 15 17 19 20 21 23 23 24 24 24 24 24 24 25 25 25 25 25 25 25 25 25 26 26 26 26 26 26 26 25 25 25 25 24 24 24 24 23 23 23 23 23 23 23 23 23 23 23 24 24 24 24 24 25 25 25
5 4 4 4 4 4 4 4 4 4 5 5 6 7 7 6 6 6 6 5 4 4 4 4 5 5 5 6 7 9 10 12 13 14 16 18 19 20 21 22 23 24 24 24 25 25 25 25 25 25 26 26 26 26 26 26 26 26 26 25 25 25 24 24 24 23 23 23 23 23 23 23 23 23 23 23 23 23 24 24 24 24 25 25 25 26
6 6 5 5 4 4 4 4 4 4 5 6 6 7 8 7 6 5 4 4 4 4 4 4 5 5 5 5 6 7 8 9 10 11 12 12 13 15 18 19 21 22 23 24 24 24 25 25 25 26 26 26 26 26 26 26 26 25 25 25 24 24 24 24 24 23 23 23 23 23 23 23 23 23 23 23 24 24 24 24 24 25 25 25 26 26
7 7 6 5 4 4 5 5 5 5 5 6 6 7 7 7 7 6 5 5 4 4 4 4 5 6 6 5 5 6 8 10 12 14 16 15 16 17 18 18 18 19 21 22 23 24 25 25 25 26 26 26 26 26 26 25 25 25 24 24 24 24 23 23 23 23 23 23 24 24 24 24 24 24 24 24 24 24 24 24 24 25 25 25 26 26
6 6 5 5 4 4 4 5 5 5 6 6 6 5 4 4 5 5 7 7 7 6 5 4 5 6 6 6 6 6 8 8 10 12 14 16 18 19 18 18 17 18 20 21 22 23 24 25 25 26 26 26 26 25 25 24 24 24 24 24 23 23 23 23 24 24 24 24 24 24 24 25 25 25 25 25 25 25 25 25 25 25 25 25 26 26
5 5 4 4 4 4 4 4 4 5 5 5 5 4 4 3 4 5 7 8 8 8 7 5 5 5 6 6 6 6 7 7 7 7 8 9 11 11 11 11 12 14 15 17 18 20 22 23 24 25 24 24 24 24 24 23 23 23 23 24 24 24 24 24 24 24 24 24 25 25 25 25 25 25 25 25 25 25 25 25 25 25 25 25 26 26
4 4 3 4 4 4 4 5 5 5 5 5 5 5 5 5 4 5 6 8 8 8 7 7 6 5 5 6 5 5 6 6 6 6 5 5 5 5 5 6 7 8 9 10 11 13 17 20 21 22 22 22 23 23 23 23 23 23 24 24 24 24 24 24 24 24 25 25 25 25 26 26 26 25 25 25 25 25 25 25 25 25 25 25 26 26
5 4 4 5 5 5 5 6 6 6 6 5 5 5 6 5 5 5 6 7 7 7 7 8 8 7 5 6 5 5 5 6 6 5 5 4 4 4 4 6 7 7 7 8 9 10 14 15 15 16 19 20 21 21 21 22 22 23 24 24 24 24 24 25 25 25 25 25 26 26 26 26 26 26 26 25 25 25 25 25 25 25 25 25 26 26
5 5 5 6 5 5 6 6 7 6 6 5 5 5 5 6 6 6 6 8 8 7 7 8 8 8 5 5 4 4 5 5 5 5 5 5 4 4 5 7 8 8 7 8 9 10 12 11 11 11 13 15 16 18 20 21 23 24 24 25 25 25 25 25 25 25 26 26 26 26 26 26 26 26 26 26 25 25 25 25 25 25 25 25 25 25
4 4 5 6 6 6 6 6 6 6 6 6 5 5 6 7 6 6 7 8 8 8 7 8 9 8 6 5 4 4 4 5 5 5 6 6 5 5 6 7 8 9 8 8 9 9 9 9 9 10 11 15 18 21 23 23 24 25 25 25 26 26 26 26 26 26 26 26 26 26 26 26 26 26 26 26 25 25 25 25 25 25 25 25 25 25
3 4 5 6 6 7 6 6 6 6 6 6 5 5 6 6 6 6 6 7 7 7 6 7 8 8 6 5 4 3 4 4 5 6 7 8 7 6 6 7 8 9 9 9 9 9 8 8 8 9 10 15 19 23 24 25 25 26 26 26 26 26 26 26 26 26 26 26 26 26 26 26 26 26 26 26 25 25 25 25 25 25 25 25 25 25
4 4 6 6 7 7 7 6 6 5 5 6 6 6 6 6 6 6 6 7 7 7 7 7 6 6 7 6 5 3 4 5 6 7 8 9 8 7 6 6 7 8 9 9 9 8 8 8 8 10 12 18 22 24 25 26 26 26 26 27 27 26 26 26 26 26 26 27 27 27 27 27 27 26 26 26 25 25 25 25 25 25 25 25 25 25
5 6 7 7 7 7 7 6 6 6 6 6 6 6 7 7 6 6 7 7 8 8 8 8 7 6 7 7 6 5 4 5 6 8 9 10 9 7 5 6 7 8 8 9 9 8 8 8 10 14 18 22 24 25 26 26 27 27 27 27 27 27 27 27 27 27 27 27 27 27 27 27 27 26 26 26 26 25 25 25 25 25 25 25 25 25
7 7 7 7 7 7 7 6 6 6 6 7 7 7 7 7 8 8 8 7 7 8 7 7 7 7 6 7 7 6 6 6 7 8 9 10 9 7 5 5 6 7 8 8 8 8 7 8 10 13 18 21 23 25 26 26 27 27 27 27 27 27 27 27 27 27 27 27 27 27 27 27 27 26 26 26 26 26 25 25 25 25 25 25 24 24
8 7 5 5 5 5 6 6 6 7 8 8 7 7 8 8 8 8 8 8 8 7 5 5 6 6 5 7 8 8 7 7 7 7 7 8 8 7 5 5 6 7 9 8 7 7 7 8 8 10 14 19 23 25 26 27 27 28 28 28 28 28 27 27 27 27 27 27 27 27 27 27 27 27 26 26 26 26 26 25 25 25 25 25 24 24
7 7 6 6 6 6 7 7 8 9 9 8 7 7 8 8 9 9 8 7 7 6 6 5 6 6 7 9 9 8 6 5 5 6 6 7 8 7 5 4 5 7 9 8 7 7 7 8 8 10 14 20 23 25 27 27 27 28 28 28 28 28 28 28 27 27 27 27 27 27 27 27 27 27 26 26 26 26 26 26 25 25 25 25 25 25
7 7 8 8 7 7 8 8 8 8 8 8 8 8 7 8 8 8 7 6 5 6 6 7 8 8 9 9 9 7 5 5 5 5 5 8 9 8 5 5 6 7 8 7 7 7 7 8 8 10 14 20 23 25 27 27 27 28 28 28 28 28 28 28 28 27 27 27 27 27 27 27 27 27 27 27 27 26 26 26 26 25 25 25 25 25
7 7 7 7 7 7 6 7 7 7 7 8 8 8 7 6 6 5 5 5 6 7 8 8 9 9 8 8 8 7 5 4 4 4 5 7 8 7 5 5 7 9 9 8 7 7 8 9 9 9 11 17 21 24 26 27 27 28 28 28 28 28 28 28 28 27 27 27 27 27 27 27 27 27 27 27 27 26 26 26 26 25 25 25 25 25
7 7 7 7 8 9 10 10 10 10 9 8 7 6 5 6 6 7 7 7 8 8 8 9 10 9 8 8 8 7 5 4 3 4 4 5 7 7 6 6 7 9 9 8 7 7 8 9 9 9 9 13 18 22 24 26 27 27 28 28 28 28 28 28 27 27 27 27 28 28 28 28 28 28 27 27 27 26 26 26 26 25 25 25 25 25
12 11 12 13 16 18 19 19 18 18 17 13 9 7 7 7 7 7 8 7 7 7 8 9 9 9 8 7 7 6 5 4 3 4 4 5 6 7 6 5 6 8 10 8 8 8 9 9 9 9 9 11 15 19 22 24 26 27 27 27 27 27 28 27 27 27 28 28 28 28 28 28 28 27 27 27 27 26 26 26 26 26 25 25 25 24
19 20 21 21 21 21 21 21 21 21 21 19 16 13 11 8 8 8 8 7 6 7 7 8 9 9 8 7 7 6 6 5 4 4 4 5 6 7 6 5 6 8 10 9 8 8 10 10 10 10 10 10 11 14 20 22 24 25 26 27 27 27 27 28 28 28 28 28 28 28 28 27 27 27 27 27 27 26 26 26 26 26 25 24 22 19
20 19 19 19 19 18 18 18 19 19 20 20 20 19 14 9 7 7 7 6 6 6 7 8 8 8 7 8 7 7 7 6 5 4 4 4 5 6 6 6 6 7 9 8 8 9 10 10 10 9 9 9 9 11 15 19 21 23 24 25 26 27 27 27 28 28 28 27 27 27 27 27 27 27 27 27 27 26 26 26 26 25 23 19 15 11
15 15 15 15 15 16 16 16 16 17 18 19 19 17 12 7 6 6 7 6 6 7 8 8 8 8 8 8 8 8 8 7 5 4 3 4 5 5 5 6 7 7 7 7 7 7 8 7 7 7 7 9 9 9 10 14 16 18 20 23 24 25 26 26 27 27 27 27 27 27 27 27 27 27 27 26 26 26 26 26 25 23 18 14 11 9
8 9 9 10 11 12 12 11 11 13 16 17 17 15 11 7 6 6 7 6 7 7 8 8 8 8 8 8 8 8 7 5 4 2 2 3 4 5 5 7 7 7 6 6 6 6 6 6 5 5 5 8 8 8 8 10 11 12 13 17 19 21 23 24 25 26 26 27 27 27 27 27 27 26 26 26 26 26 26 26 24 19 12 10 9 8
5 6 6 6 7 7 7 7 8 10 12 13 13 12 10 7 6 6 6 6 6 7 8 8 8 8 8 7 7 6 6 5 3 3 3 4 4 5 6 7 7 7 5 5 5 6 7 6 5 5 5 7 7 8 9 9 10 10 10 11 12 15 19 22 23 24 24 25 25 26 26 26 26 26 26 26 26 26 26 26 23 18 11 9 9 8
6 7 6 6 5 5 5 6 7 7 7 8 8 8 8 8 7 6 6 6 6 6 7 8 8 8 8 7 7 7 6 6 5 6 5 5 5 5 6 6 7 7 5 5 6 6 7 6 6 5 6 7 7 8 9 10 10 10 10 10 10 12 16 18 20 20 20 21 23 24 25 25 25 26 26 26 26 26 26 26 24 19 12 10 9 9
7 6 6 6 6 5 6 6 6 6 6 6 6 6 6 7 7 7 6 6 6 6 7 7 8 8 8 9 9 9 8 7 7 8 8 6 5 5 5 6 7 8 7 7 7 7 7 7 7 7 6 7 7 7 8 9 10 10 10 10 10 11 14 14 14 14 15 16 18 19 21 22 23 24 24 25 25 25 25 25 24 21 15 11 9 9
7 7 6 6 6 6 6 6 6 6 6 6 6 6 6 6 6 6 6 6 6 6 6 7 8 8 9 9 9 9 9 8 9 9 9 6 5 5 6 7 8 8 8 7 7 7 7 9 9 8 7 7 7 7 7 8 9 10 9 9 9 9 11 11 11 11 12 12 12 13 15 16 17 19 21 22 22 23 23 24 24 23 20 15 11 10
6 7 7 6 6 6 6 6 6 6 6 6 6 6 6 6 6 6 6 6 6 6 6 7 7 8 8 9 9 10 10 9 9 10 10 7 6 6 6 7 8 8 8 8 7 7 7 9 10 10 9 8 8 7 7 7 8 8 8 8 9 8 9 9 9 10 11 11 10 10 10 10 11 13 14 17 19 20 22 23 24 24 24 21 17 13
6 7 7 6 6 6 7 7 7 7 7 6 6 6 6 6 6 6 6 6 7 7 8 8 8 8 8 9 9 10 11 10 10 11 11 9 7 7 6 7 8 8 9 9 8 8 8 9 10 11 11 10 9 7 7 7 7 7 8 9 9 9 9 9 9 9 9 10 10 10 9 9 9 10 11 15 18 20 22 23 24 24 24 24 23 20
6 6 6 6 6 6 7 7 6 6 7 6 6 6 6 6 7 7 7 7 7 7 8 9 9 10 10 10 10 11 11 11 11 12 12 10 9 8 8 8 9 9 9 9 9 9 9 10 10 10 10 9 8 8 7 7 7 7 8 9 9 9 10 9 9 9 9 10 10 10 10 9 9 10 10 15 17 19 21 22 22 23 24 24 24 24
6 6 6 6 6 6 6 6 6 6 7 7 7 7 7 7 8 8 8 8 8 8 8 9 9 10 13 14 14 13 13 14 14 15 14 12 10 9 9 9 9 9 9 9 9 10 10 10 10 10 9 9 9 10 10 9 9 9 9 9 9 10 10 10 9 9 9 10 11 11 11 10 9 9 10 11 11 11 12 13 15 17 19 20 21 23
6 6 6 6 6 6 6 6 7 7 7 7 7 8 8 8 9 9 8 8 8 9 9 9 9 10 12 13 14 15 15 15 15 15 14 13 11 10 10 10 10 10 10 10 9 9 10 10 10 10 9 9 10 10 10 9 10 11 11 10 10 9 9 9 9 9 9 10 10 11 11 10 9 9 8 8 8 8 9 9 10 12 13 12 13 16
6 6 7 7 7 6 6 7 7 7 7 8 8 8 8 8 8 8 8 8 8 9 9 10 10 10 10 11 12 13 14 13 13 12 12 11 10 10 10 10 10 10 10 9 9 9 10 10 11 11 11 10 10 10 10 9 10 11 12 10 9 8 9 9 9 9 9 9 10 10 10 9 9 9 9 8 8 8 8 8 8 9 10 8 8 9
7 7 7 7 7 7 7 7 7 7 7 8 7 7 7 7 7 7 7 7 7 7 8 8 9 9 9 10 10 11 12 12 12 12 10 11 11 11 10 10 10 10 10 10 10 9 10 11 11 11 11 11 11 12 12 12 13 14 14 12 11 10 11 11 11 10 9 9 9 9 10 10 10 10 10 10 9 9 8 8 9 9 9 8 8 8
8 7 7 7 7 7 7 7 8 8 8 7 7 7 7 7 7 7 8 8 8 7 7 7 8 9 10 9 9 9 10 10 10 11 11 12 12 12 11 10 10 10 10 10 10 10 10 11 11 11 11 11 11 11 11 12 13 13 13 13 13 12 12 11 10 8 9 9 9 9 10 10 10 10 10 10 10 9 9 9 10 11 11 9 8 8
7 7 7 7 7 7 8 8 8 8 7 7 7 7 7 6 6 7 8 8 8 8 8 8 8 9 10 10 10 9 8 8 9 10 10 10 11 11 11 11 11 10 9 10 10 11 11 11 11 11 11 11 11 12 13 13 13 13 13 13 12 11 8 8 7 7 8 9 9 9 9 10 10 10 10 10 10 9 8 10 12 13 13 11 10 9
7 7 7 7 7 7 7 7 7 7 7 7 7 7 7 7 7 8 8 8 8 9 8 8 8 9 9 10 10 10 9 8 8 8 9 10 10 10 11 11 11 11 10 10 9 10 10 11 11 11 11 11 11 12 12 13 13 13 12 12 12 11 10 9 9 9 10 9 9 8 9 9 9 10 10 10 10 9 9 9 10 10 11 11 10 10
7 7 7 7 7 7 7 7 7 7 7 7 8 8 8 8 8 8 8 8 8 9 8 8 7 8 9 9 9 9 9 9 8 7 7 9 11 12 11 11 10 10 10 10 10 10 10 10 10 11 10 10 11 12 13 13 13 13 13 13 13 13 12 12 11 11 10 10 9 9 9 9 9 10 10 11 10 10 10 10 10 9 9 9 9 9
6 6 7 6 6 7 8 8 7 7 7 8 8 8 8 8 7 7 8 8 8 8 8 8 7 7 9 9 9 9 9 9 9 8 7 7 8 8 9 9 9 9 9 9 10 10 10 11 11 11 11 11 11 12 13 13 13 13 13 13 12 12 12 12 11 11 11 11 11 11 10 10 9 10 10 11 11 10 10 10 10 10 9 8 8 9
6 7 7 7 7 7 7 7 7 7 8 8 8 8 8 8 7 7 8 8 8 8 8 8 8 8 9 10 9 9 10 10 10 10 9 9 8 8 8 8 9 9 9 9 10 11 11 11 12 11 11 11 12 12 13 12 12 12 13 12 12 12 12 11 11 10 10 10 11 10 9 9 9 10 10 11 11 11 10 10 10 10 9 9 9 9
7 7 7 7 7 7 7 7 7 7 8 8 8 8 8 8 8 9 8 8 8 8 8 8 8 9 9 10 10 10 10 11 11 10 10 9 9 9 9 8 8 8 9 10 11 12 12 12 13 13 12 11 12 12 13 13 12 12 12 12 11 11 12 12 11 10 10 10 11 10 8 8 8 10 10 11 11 11 11 11 10 9 9 9 9 9
7 7 7 7 7 7 7 7 7 8 8 9 9 9 8 9 10 10 9 8 8 8 8 8 9 9 10 10 10 10 11 11 11 10 10 10 9 9 8 8 8 8 8 9 9 10 10 11 13 13 12 12 12 13 14 13 13 12 11 11 11 11 11 11 11 10 10 10 10 10 8 8 8 9 10 11 12 12 12 12 11 10 9 9 9 9
7 7 7 7 7 7 8 8 8 8 9 9 9 9 9 8 8 8 8 8 8 7 8 8 9 9 10 10 10 10 11 10 10 10 10 9 9 9 8 8 8 9 9 8 8 7 8 8 9 11 13 14 14 13 13 13 13 12 12 11 11 10 11 11 10 10 9 9 10 9 9 9 9 9 9 11 13 14 14 13 11 10 9 8 8 9
7 7 7 7 7 7 7 8 8 8 9 9 9 9 9 9 8 8 8 8 8 8 8 8 9 9 10 10 11 11 11 10 10 11 10 9 9 9 9 9 9 9 9 8 8 7 7 7 7 7 9 12 14 14 12 12 12 12 11 11 10 9 9 9 9 9 10 10 10 9 10 10 10 10 10 11 12 13 13 13 12 10 9 8 8 9
Wind_Direction
297 301 303 309 308 304 301 306 310 311 308 308 307 305 302 300 298 294 292 291 288 285 282 280 279 278 279 284 289 293 297 300 301 302 302 302 302 302 302 302 302 302 303 303 303 303 303 302 302 301 301 300 299 299 298 297 297 296 296 295 295 294 294 294 294 294 294 294 294 293 293 293 293 294 294 293 293 292 292 291 290 289 288 287 286 286
297 298 300 306 307 303 299 303 304 304 302 302 301 300 298 295 293 291 289 285 282 279 278 278 277 275 275 280 288 294 297 300 301 302 302 302 302 302 302 303 303 303 303 303 303 303 302 302 301 301 300 299 299 298 298 297 296 296 295 295 295 295 295 295 295 295 295 294 294 294 294 294 293 293 293 292 292 291 290 289 288 287 287 286 285 284
303 302 301 303 302 300 298 301 298 293 292 293 292 291 291 290 289 288 286 284 281 277 275 275 276 277 276 280 289 295 297 300 301 302 302 302 303 303 303 303 303 303 303 303 303 302 302 301 301 300 300 299 298 298 297 297 296 296 296 296 296 296 296 296 295 295 295 295 294 294 294 293 293 292 291 291 290 289 288 287 286 285 284 283 283 282
304 302 302 302 297 292 289 292 292 289 286 286 286 285 284 284 284 283 282 282 281 279 275 273 274 277 280 282 289 293 297 299 301 302 303 303 303 303 303 303 303 303 302 302 302 301 301 300 300 299 299 298 298 298 297 297 297 297 297 297 297 297 296 296 296 295 295 295 294 294 293 293 292 291 290 289 288 287 286 285 284 283 282 281 280 279
301 300 301 301 297 290 284 284 285 285 284 283 283 283 281 281 281 282 282 281 280 279 278 277 276 278 282 284 289 294 297 300 302 303 303 303 303 303 302 302 302 302 301 301 301 300 300 300 299 299 298 298 298 297 297 297 297 297 298 298 297 297 297 297 296 296 295 295 294 294 293 292 292 291 290 289 287 286 285 284 283 281 280 279 278 277
298 294 295 294 291 289 288 284 283 284 286 285 285 284 284 283 284 284 285 284 283 283 283 282 281 280 280 283 290 295 298 301 302 303 303 302 302 301 301 301 301 300 300 300 300 300 299 299 299 298 298 298 298 298 298 298 298 298 298 298 298 298 298 297 297 296 296 295 294 293 293 292 291 290 289 287 286 285 284 282 281 280 279 278 277 276
294 291 289 284 282 282 284 283 284 287 292 294 294 292 289 287 285 284 284 285 286 286 285 283 281 280 281 284 291 296 299 301 301 301 301 300 299 299 299 299 299 299 299 299 299 299 299 299 299 299 299 299 299 299 299 299 299 299 299 299 299 298 298 297 297 296 296 295 294 293 292 291 290 288 287 286 285 284 283 282 281 279 278 277 276 275
296 293 289 287 286 286 285 286 289 293 297 299 298 297 294 290 287 285 284 283 282 282 285 287 288 288 289 290 293 296 298 299 298 298 298 297 296 296 297 297 297 298 298 298 298 298 299 299 299 299 299 299 299 300 300 300 300 300 299 299 299 298 298 297 297 296 295 294 293 292 291 290 288 287 286 285 284 283 282 281 280 279 278 276 275 274
295 295 293 292 294 297 297 296 296 297 297 295 293 293 293 293 291 289 287 284 281 283 291 298 300 299 297 295 295 294 294 293 293 293 294 293 293 293 294 295 296 297 297 298 298 298 299 299 300 300 300 300 300 300 300 300 300 300 299 299 299 298 297 297 296 295 294 293 292 291 290 289 288 287 285 284 283 282 281 280 279 279 277 277 276 275
292 294 296 295 295 299 301 302 301 297 289 284 282 282 286 291 294 297 298 296 297 298 300 303 304 303 301 299 297 294 293 292 291 291 291 290 290 291 292 294 295 296 296 297 298 299 299 300 300 300 300 300 300 300 300 300 300 299 299 298 298 297 296 295 294 293 292 291 290 289 288 288 287 286 285 284 283 282 281 281 280 279 278 278 277 276
295 295 297 298 299 298 296 295 295 291 283 280 277 275 274 283 295 305 309 309 309 309 306 304 302 302 303 302 300 296 294 292 290 288 288 287 288 290 291 292 293 294 296 297 298 299 300 300 300 300 300 300 300 300 300 300 299 299 298 297 296 295 294 293 292 291 290 289 288 288 288 287 286 286 285 284 284 283 283 282 281 280 280 279 279 278
297 299 299 300 300 298 290 286 284 285 285 287 289 291 290 295 305 311 312 310 310 309 307 304 301 299 298 299 298 296 292 289 286 284 283 284 285 287 289 291 292 294 295 296 297 298 299 299 299 299 300 300 300 300 300 299 298 297 296 295 294 293 292 291 290 289 288 288 288 288 288 287 287 286 286 286 285 285 284 283 282 281 281 280 279 278
294 295 295 293 293 292 292 292 293 294 296 300 305 308 310 314 315 312 306 304 304 306 307 305 302 298 293 290 289 289 287 285 283 282 281 282 283 285 289 291 292 293 295 296 296 296 297 298 299 299 299 299 299 299 298 297 296 295 294 293 292 291 291 290 289 289 289 289 289 289 288 288 288 287 287 287 286 285 285 284 283 282 281 280 279 278
291 290 289 289 290 292 294 297 298 300 302 305 307 309 311 313 312 308 302 300 300 302 303 301 299 296 292 285 279 277 280 283 285 285 285 285 287 291 295 295 295 295 296 295 294 294 296 297 298 298 298 297 297 297 295 294 293 293 292 292 291 291 291 291 291 290 290 290 290 289 289 289 288 288 288 287 287 286 285 284 283 282 281 280 279 278
285 286 287 288 290 293 296 298 298 298 300 303 307 309 309 307 306 304 302 301 302 303 302 298 294 291 287 281 277 276 279 285 291 294 294 291 291 293 297 297 297 296 295 294 293 293 295 295 294 293 293 293 292 291 291 291 291 291 292 292 292 292 292 292 292 291 291 290 290 289 289 289 289 288 288 288 287 286 286 285 284 282 281 280 279 278
277 281 286 290 292 295 297 297 297 298 300 303 306 308 306 304 303 302 301 301 302 302 301 299 297 294 288 282 280 284 289 294 298 300 299 296 295 297 300 299 297 296 294 292 291 291 293 291 289 287 287 288 289 290 290 291 292 292 292 293 293 293 293 292 292 291 291 290 290 290 289 289 289 289 289 288 288 287 286 285 284 283 282 280 279 277
279 285 291 294 295 296 296 295 295 296 300 302 302 301 300 299 300 299 298 297 297 297 294 295 297 298 297 295 293 294 304 307 306 302 299 296 297 299 301 298 296 294 292 290 288 289 290 289 287 286 285 286 288 290 291 292 292 293 293 293 293 292 292 292 292 292 291 291 291 290 290 290 290 290 290 289 289 288 287 286 284 283 281 280 278 277
291 295 297 295 294 294 296 295 295 296 299 299 299 297 295 293 293 293 292 290 289 288 288 288 289 291 296 298 301 310 325 318 311 304 299 296 296 298 301 296 292 290 289 287 286 285 285 284 283 283 283 287 288 290 291 292 292 292 292 292 292 292 292 292 292 292 292 292 292 291 291 291 291 290 290 289 289 287 286 285 283 282 281 279 278 277
296 296 295 292 292 291 293 294 296 297 299 299 299 298 296 293 290 288 285 282 280 279 280 281 282 283 286 290 297 311 328 320 311 304 299 296 296 298 301 295 290 286 285 284 283 283 282 280 281 282 284 287 288 290 291 291 292 292 292 292 292 292 292 292 293 292 293 293 292 292 292 291 291 290 289 289 287 286 285 284 283 282 281 281 280 279
290 288 285 287 288 289 288 289 292 294 296 297 297 296 293 291 288 284 279 276 274 273 274 276 279 282 285 290 298 308 322 319 310 302 296 294 294 296 298 293 288 284 283 281 280 280 280 279 280 282 284 286 287 289 290 290 291 291 292 292 292 292 293 293 293 293 293 293 293 292 291 291 290 289 288 288 287 286 286 285 285 284 283 283 282 281
282 280 277 280 284 286 286 288 290 292 294 295 294 290 287 285 282 278 276 276 277 277 276 277 280 287 295 298 302 307 318 316 308 300 295 292 291 291 292 288 284 282 281 280 279 278 278 277 277 279 281 284 286 288 289 290 290 291 291 292 292 293 293 293 293 293 293 292 292 291 290 290 289 289 288 288 288 288 288 287 287 286 285 284 283 282
277 277 278 278 280 282 285 288 290 290 290 288 284 280 278 278 278 278 280 282 284 286 288 289 293 297 299 297 298 302 310 307 299 294 294 290 288 287 288 284 281 281 280 281 281 279 277 277 277 278 280 283 285 287 288 289 290 291 291 292 293 293 293 293 293 292 292 291 291 290 290 290 290 290 290 291 290 290 289 289 288 287 286 285 283 282
271 274 279 280 280 281 284 287 287 285 282 277 272 270 269 271 274 278 284 289 295 298 299 298 297 296 294 293 294 296 297 290 285 285 286 284 286 288 290 287 285 283 281 283 284 284 282 279 278 279 280 283 285 286 288 289 290 291 291 292 292 293 293 292 292 291 291 291 291 291 291 292 292 292 292 292 291 290 289 288 288 287 286 285 284 283
273 278 282 282 282 281 281 280 279 276 273 269 266 265 265 269 277 287 298 304 306 304 301 299 297 295 292 292 291 290 288 281 277 277 278 280 283 287 291 290 287 285 283 284 286 286 284 280 277 277 278 282 285 286 288 289 290 291 291 292 292 292 292 291 291 291 291 291 292 292 292 293 292 292 291 291 290 289 289 288 287 286 286 285 284 284
281 281 282 280 279 278 277 277 278 279 281 279 278 279 283 291 299 303 306 305 304 303 302 300 297 294 293 293 291 289 286 276 270 271 275 279 282 284 287 289 288 287 286 285 285 284 282 281 280 279 280 283 285 287 288 289 290 290 290 291 291 290 290 291 291 291 292 292 293 293 292 292 292 291 290 290 289 289 288 288 287 287 286 286 285 284
285 283 283 283 284 285 287 288 290 294 298 301 304 309 312 312 311 309 305 303 301 301 299 295 292 290 292 292 291 289 290 281 273 270 273 279 283 285 286 286 284 284 285 286 286 285 285 285 285 284 284 284 285 287 287 288 288 289 289 289 290 290 291 291 292 293 293 293 292 292 291 291 290 290 289 289 289 288 288 288 288 287 287 287 287 286
287 287 288 289 291 292 294 297 299 302 305 308 309 310 310 311 308 302 297 298 299 298 294 291 290 291 292 290 289 288 291 290 284 277 274 278 280 283 284 285 284 285 286 287 288 288 288 287 287 287 285 284 284 284 285 286 287 288 288 289 291 291 292 292 292 293 292 292 291 291 290 290 289 289 289 289 288 288 288 288 288 289 289 289 288 286
288 289 290 292 294 296 299 301 304 306 307 307 306 305 304 303 297 293 290 294 296 294 289 288 289 290 291 290 289 289 290 288 285 279 274 275 276 279 284 287 288 288 290 290 289 288 285 284 283 283 282 280 279 280 282 285 287 289 290 291 291 292 291 291 291 291 291 290 290 290 289 289 289 288 288 288 288 288 289 289 289 290 290 289 288 285
286 288 289 292 295 299 303 305 306 305 304 303 301 300 299 294 287 285 287 292 291 287 283 282 283 285 287 288 289 289 287 283 279 274 271 273 275 278 286 290 292 292 294 294 291 287 280 276 275 276 277 279 280 281 284 287 289 290 290 290 290 290 289 289 289 289 289 289 289 289 288 288 288 288 288 288 288 289 289 290 290 290 290 288 285 281
286 288 289 294 299 303 306 305 303 301 299 298 297 296 294 287 280 278 281 282 281 279 278 279 280 282 285 289 290 289 284 279 273 269 275 279 280 282 290 291 292 293 296 297 295 290 282 276 273 273 278 283 285 286 288 289 288 288 288 288 287 287 287 287 287 288 288 288 288 288 288 288 288 288 288 288 288 288 289 289 289 289 288 285 281 278
300 301 299 300 302 303 302 297 295 294 294 294 293 292 288 281 273 269 270 270 270 271 274 277 279 281 283 287 289 288 285 283 285 292 299 287 283 284 291 290 290 290 291 293 294 294 294 289 283 279 282 286 287 287 286 286 285 285 285 285 285 284 285 285 286 286 287 287 287 287 287 288 288 288 288 288 288 288 288 288 288 288 286 283 279 276
309 307 305 304 303 299 295 292 290 289 287 287 285 282 279 274 271 267 265 264 265 267 271 275 277 278 278 278 278 279 281 286 294 300 300 289 283 283 286 287 287 288 287 282 283 287 293 294 294 292 289 287 286 285 283 283 283 283 283 283 282 282 283 284 285 286 286 286 287 287 287 287 287 287 287 286 286 286 286 286 286 285 283 280 277 274
311 308 304 301 297 293 289 286 284 283 281 280 278 275 273 271 270 269 267 264 264 266 269 273 276 278 277 275 274 274 276 282 290 295 296 290 285 284 286 286 287 287 288 282 277 276 279 286 291 294 291 286 283 282 282 281 280 280 280 280 280 281 283 283 284 284 284 285 285 286 286 286 285 285 285 284 284 284 284 284 283 282 281 278 274 272
306 302 298 296 293 290 286 284 282 281 280 280 279 278 276 274 272 272 271 269 267 267 267 270 274 277 279 278 277 276 277 280 287 293 296 291 286 284 287 286 287 288 289 285 281 278 276 280 285 290 291 287 283 281 281 281 280 279 277 276 277 279 281 282 282 282 282 282 282 282 283 283 282 282 282 281 281 281 281 281 280 280 278 275 272 270
298 295 294 292 291 290 288 287 285 284 283 283 283 283 282 281 279 277 275 273 271 269 267 267 269 271 275 277 279 280 281 284 289 294 294 289 286 284 286 284 285 287 288 285 284 283 280 281 283 286 290 290 287 282 279 278 278 278 276 275 275 277 279 280 280 280 280 280 279 278 277 277 277 276 277 276 276 277 277 278 278 278 278 276 275 273
293 292 292 291 291 291 291 291 291 291 291 290 289 289 288 287 286 284 281 278 277 275 273 271 269 267 268 270 273 277 280 285 289 291 289 285 283 282 282 282 283 285 285 283 282 281 281 282 283 284 286 287 288 287 283 280 279 280 280 278 278 277 277 276 277 277 278 278 277 275 274 273 271 270 270 272 273 274 276 277 278 278 278 278 277 276
290 290 292 291 292 292 293 294 295 296 297 297 296 295 294 292 291 289 287 283 280 278 278 275 273 270 267 266 267 271 276 281 283 284 282 280 278 277 276 278 279 280 279 280 281 281 281 283 284 284 283 283 285 288 290 290 287 284 281 281 281 280 278 277 276 275 275 274 273 273 272 270 269 268 268 271 273 275 276 277 277 277 277 277 276 275
292 293 294 294 295 295 296 298 299 300 300 300 300 298 297 294 292 291 289 285 282 279 277 276 275 272 270 269 268 269 271 274 276 277 276 274 272 271 271 274 275 274 272 273 276 279 281 282 284 285 284 282 281 283 288 291 290 287 284 283 281 280 278 277 275 273 271 272 272 273 273 272 271 271 271 272 272 273 274 273 273 273 274 274 273 273
294 295 296 298 299 300 301 301 301 301 301 300 299 298 296 294 292 289 287 286 283 280 279 278 277 275 273 271 270 270 271 271 272 272 271 269 268 267 268 271 272 272 270 270 271 273 275 277 279 282 284 285 284 284 285 285 285 286 287 287 283 278 274 274 273 273 272 273 275 276 275 274 272 271 270 269 268 267 267 267 266 266 267 268 269 270
296 296 297 300 301 302 301 300 299 300 300 298 297 296 295 293 291 290 287 285 284 282 280 279 278 276 275 274 273 273 273 272 271 270 269 266 263 262 264 267 270 272 272 270 268 268 269 272 274 276 278 281 283 285 285 282 282 284 288 288 286 281 279 279 279 277 275 274 273 273 273 272 269 267 266 264 262 260 260 261 263 263 262 261 264 268
300 300 299 301 301 300 298 298 298 298 298 297 297 296 295 294 294 293 292 289 287 284 284 283 282 280 278 276 274 274 274 272 270 268 265 262 260 259 260 262 266 269 271 269 268 266 266 269 272 274 274 276 278 280 280 279 280 282 285 284 283 283 285 283 280 278 275 272 270 270 271 272 272 270 267 265 262 258 255 257 259 261 261 258 257 259
300 300 300 301 301 300 299 299 298 298 297 297 296 294 294 295 295 295 295 294 293 291 291 291 290 289 287 284 280 275 271 269 266 264 263 260 258 257 258 259 261 264 267 269 268 267 265 267 269 271 272 274 276 277 278 278 278 279 280 280 282 284 285 280 276 273 274 273 271 271 271 273 272 271 270 268 265 262 258 256 257 258 260 257 253 251
298 297 297 298 297 297 299 300 300 300 299 297 294 293 292 293 294 294 293 293 293 294 294 293 292 291 291 291 289 286 279 271 266 263 262 260 258 257 257 257 258 260 262 265 267 267 266 265 265 266 268 271 272 274 277 279 279 279 277 278 281 283 284 281 279 277 276 274 274 273 272 272 271 270 269 268 267 265 261 259 258 257 255 255 253 250
294 294 294 296 298 299 301 302 301 300 299 296 295 294 293 293 293 292 292 291 292 292 293 293 291 289 287 288 290 292 292 287 278 270 265 263 260 258 260 259 259 259 258 261 265 269 271 268 266 266 267 269 270 271 273 276 278 278 278 277 276 275 274 279 283 284 281 276 273 271 269 269 269 269 270 269 267 265 261 258 256 253 251 250 249 248
291 294 296 299 302 304 304 302 300 299 298 296 295 294 295 294 294 292 291 291 291 291 291 292 292 290 288 289 291 294 296 296 293 287 279 272 270 268 267 266 265 263 261 259 260 264 268 270 270 270 270 269 269 269 270 274 276 277 277 277 275 273 271 275 278 280 279 277 275 272 269 268 269 270 271 269 267 264 261 259 257 254 251 246 244 245
294 297 300 302 303 302 300 299 299 299 297 295 295 295 296 296 295 292 290 290 290 290 290 290 290 288 288 291 294 296 297 298 298 298 295 288 281 275 270 268 267 266 264 262 260 260 260 264 268 272 275 273 270 268 268 271 273 276 277 277 276 276 275 275 275 275 275 276 275 273 271 269 269 269 269 269 269 267 264 262 260 258 255 250 246 244
299 301 302 302 301 300 299 299 300 299 298 297 297 297 297 297 296 294 291 290 290 290 290 290 288 285 285 288 291 293 295 296 297 298 298 297 293 288 281 275 270 267 266 265 263 261 260 260 262 266 270 272 273 272 270 270 270 272 274 275 276 276 276 275 274 273 272 272 272 272 273 272 270 269 269 271 271 271 268 265 262 259 256 253 250 248
302 302 302 302 301 300 300 301 301 301 300 299 299 298 298 298 298 298 295 294 293 292 292 291 289 286 285 286 287 288 290 292 293 294 296 296 295 293 289 286 280 275 271 269 267 266 264 261 259 259 261 264 268 271 273 272 270 269 271 273 274 274 274 274 274 273 271 270 269 270 271 271 272 273 275 275 274 273 272 270 267 262 258 254 252 250
302 301 301 301 300 300 300 302 303 302 300 300 300 299 299 298 299 298 296 296 294 292 291 290 289 288 287 287 288 288 289 289 290 290 291 292 293 293 292 291 289 286 282 277 273 270 267 263 257 252 249 252 257 263 269 270 270 270 270 270 271 271 272 273 274 274 273 272 271 270 269 270 271 273 275 275 275 275 275 273 269 265 260 255 252 250
300 299 300 300 300 300 300 302 302 301 300 300 300 300 300 299 298 297 295 293 292 290 288 287 288 288 288 289 289 290 290 290 289 289 290 291 292 293 293 293 293 292 289 286 283 279 276 271 260 250 243 242 245 252 261 266 269 270 270 269 269 270 271 274 275 276 277 277 277 276 274 273 272 271 271 272 274 275 276 274 271 267 262 257 252 250
301 300 301 301 300 300 300 301 300 299 298 299 299 299 299 299 299 298 296 294 293 291 289 288 287 287 287 289 290 290 290 290 289 289 290 291 292 292 292 292 293 293 292 291 290 289 287 286 280 268 253 246 244 246 255 261 267 271 271 270 270 271 273 276 278 280 281 282 281 280 279 276 273 271 269 270 272 275 276 275 273 270 266 262 258 255